Regional Weather Roundup
Issued by NWS Northern Indiana

Home | Current Version | Previous Version | Graphics & Text | Print | Product List | Glossary On
Versions: 1 2 3 4 5 6 7 8 9 10 11 12 13 14 15 16 17 18 19 20 21 22 23 24 25 26 27 28 29 30 31 32 33 34 35 36 37 38 39 40 41 42 43 44 45 46 47 48 49 50
000
ASUS43 KIWX 260310
RWRIWX

KIWX WEATHER ROUNDUP
NATIONAL WEATHER SERVICE NORTHERN INDIANA
1100 PM EDT TUE APR 25 2017

NOTE: "FAIR" INDICATES FEW OR NO CLOUDS BELOW 12,000 FEET WITH NO
SIGNIFICANT WEATHER AND/OR OBSTRUCTIONS TO VISIBILITY.

* THESE STATIONS ARE NOT UNDER NWS QUALITY CONTROL. THEY ALSO MAY NOT
  REPORT WEATHER SUCH AS PRECIPITATION OR FOG.

INZ001>027-260400-
NORTHERN INDIANA

CITY           SKY/WX    TMP DP  RH WIND       PRES   REMARKS
GARY*          MOCLDY    73  50  43 SE7       29.59R
VALPARAISO     CLOUDY    71  55  56 S10G17    29.62R
MICHIGAN CITY* CLOUDY    68  54  60 SE12G17   29.57F
LAPORTE*       CLOUDY    66  56  71 SE14      29.60F
KNOX*          CLOUDY    66  32  28 SE9       29.62S
SOUTH BEND     PTCLDY    66  55  67 SE8       29.64R
GOSHEN         CLEAR     64  52  64 SE6       29.65R
MONTICELLO*    CLOUDY    69  54  58 E5        29.62R
LOGANSPORT*    MOCLDY    63  54  72 SE8       29.65R
ROCHESTER*     CLOUDY    68  55  64 SE3       29.65R
WARSAW*        CLEAR     66  54  63 S3        29.65R
ANGOLA*        CLEAR     63  55  77 E9        29.68R
FORT WAYNE     MOCLDY    65  54  67 SE8       29.66R
HUNTINGTON*    CLEAR     67  54  64 SE5       29.66R
PERU/GRISSOM   CLOUDY    64  57  77 S7        29.63R
MARION*        PTCLDY    64  55  72 SE7       29.66R

$$
INZ028>050-260400-
CENTRAL INDIANA

CITY           SKY/WX    TMP DP  RH WIND       PRES   REMARKS
LAFAYETTE      CLOUDY    66  56  70 CALM      29.62R
KOKOMO*        CLOUDY    66  56  70 SE10      29.65R
MUNCIE*        CLEAR     69  55  60 S7        29.66R
INDIANAPOLIS   PTCLDY    68  55  63 SE14      29.64R

$$
MIZ043>046-050>051-056>058-064>065-071>073-077>080-260400-
SOUTHWEST LOWER MICHIGAN

CITY           SKY/WX    TMP DP  RH WIND       PRES   REMARKS
BATTLE CREEK   CLOUDY    65  53  65 SE12      29.68R
BENTON HARBOR  CLOUDY    65  53  65 E5        29.62R
COLDWATER*     PTCLDY    60  53  76 E6        29.68S
HILLSDALE*     CLOUDY    55  50  82 E6        29.70R
HOLLAND        CLOUDY    65  54  67 E5        29.64R
GRAND RAPIDS   CLOUDY    65  56  72 SE10      29.66R
KALAMAZOO      CLOUDY    66  53  63 SE8       29.66S
STURGIS*       CLOUDY    64  55  73 E12       29.66R
THREE RIVERS*  FAIR      65  54  67 E7        29.66R

$$
OHZ001>008-015>018-024>025-260400-
NORTHWEST OHIO

CITY           SKY/WX    TMP DP  RH WIND       PRES   REMARKS
WAUSEON*       FAIR      57  54  88 E7        29.70R
DEFIANCE       CLOUDY    59  53  80 E7        29.68R
FINDLAY        CLEAR     66  52  60 SE8       29.69R
TOLEDO EXPRESS CLEAR     57  53  86 E7        29.70R
TOLEDO METCALF CLEAR     56  53  90 E8        29.72R
LIMA           CLOUDY    65  54  67 SE12      29.69S

$$
AND FOR LAKE MICHIGAN COASTAL AND OPEN LAKE BUOY OBSERVATIONS

STATION/POSITION TEMP    WIND        PRES    VSBY  WAVE
                 AIR SEA DIR/SP/G                  HT/PER
                 (F)     (DEG/KT/KT) (MB)    (MI)  (FT/S)
CALUMET HARBOR    73     150/ 10/ 13 1001.5R
MICHIGAN CITY     71     120/ 13/ 19   N/A
BURNS HARBOR      71     180/  8/ 14 1003.0R
SOUTH LAKE BUOY   49 42   80/ 10/ 10 1002.7          0
4 MI NW BRIDGMAN  63 50  120/  8/ 12 1002.6          0

$$
&&




USA.gov is the U.S. government's official web portal to all federal, state and local government web resources and services.